Tracking 19644 objects as of 25-Apr-2019
HD Live streaming from Space Station
objects crossing your sky now

COSMOS 465

Track COSMOS 465 now!
10-day predictions
COSMOS 465 is classified as:


NORAD ID: 5683
Int'l Code: 1971-111A
Perigee: 971.0 km
Apogee: 1,012.5 km
Inclination: 74.0 °
Period: 104.8 minutes
Semi major axis: 7362 km
RCS: 3.9324 m2 (large)
Launch date: December 15, 1971
Source: Commonwealth of Independent States (former USSR) (CIS)
Launch site: PLESETSK MISSILE AND SPACE COMPLEX (PKMTR)
aabbcc
Your satellite tracking list
Your tracking list is empty




NASA's NSSDC Master Catalog

Two Line Element Set (TLE):
1  5683U 71111A   19115.05526676 -.00000022  00000-0  87619-6 0  9999
2  5683  74.0270 318.2183 0028201 282.2561 189.9707 13.74177656375035
Source of the keplerian elements: AFSPC